Sy Liara — 2BSK4 — position and weather

sailwx.info

Track history (hours):
 
Tides and Currents Weather Stations Pressure Air Temp Water Temp Dewpoint Dewpoint Depression Visibility Wind Speed Wind Dir Waves Ship Positions

Sy Liara

Last reported at 2014-Jul-26 09:25 UTC. Time now 2014-Jul-26 17:14 UTC.
Position N 37°41' E 023°32'.

Length 30 m.

Type: Sailing vessel. MMSI: 235068934.

Date/timePositionNaut miles runAvg speedWind from/ knotsBaromVisibWave heightAir tempDewpointWater temp
2014-Jul-26 09:25N 37°41' E 023°32'6 7.5
2014-Jul-26 08:33N 37°47' E 023°35'7 6.7
2014-Jul-26 07:33N 37°53' E 023°38'3 2.5
2014-Jul-26 06:31N 37°56' E 023°39'0 0.0
2014-Jul-26 05:22N 37°56' E 023°39'0 0.0
2014-Jul-26 04:22N 37°56' E 023°39'0 0.0
2014-Jul-26 03:31N 37°56' E 023°39'0 0.0
2014-Jul-26 02:31N 37°56' E 023°39'0 0.0
2014-Jul-26 01:22N 37°56' E 023°39'0 0.0
2014-Jul-26 00:22N 37°56' E 023°39'0 0.0
2014-Jul-25 23:31N 37°56' E 023°39'0 0.0
2014-Jul-25 22:19N 37°56' E 023°39'0 0.0
2014-Jul-25 21:28N 37°56' E 023°39'0 0.0
2014-Jul-25 20:25N 37°56' E 023°39'0 0.0
2014-Jul-25 19:22N 37°56' E 023°39'0 0.0
2014-Jul-25 18:31N 37°56' E 023°39'0 0.0
2014-Jul-25 17:28N 37°56' E 023°39'0 0.0
2014-Jul-25 16:31N 37°56' E 023°39'0 0.0
2014-Jul-25 15:31N 37°56' E 023°39'0 0.0
2014-Jul-25 13:22N 37°56' E 023°39'0 0.0
2014-Jul-25 12:25N 37°56' E 023°39'0 0.0
2014-Jul-25 11:28N 37°56' E 023°39'0 0.0
2014-Jul-25 10:28N 37°56' E 023°39'0 0.0
2014-Jul-25 09:10N 37°56' E 023°39'0 0.0
2014-Jul-25 08:28N 37°56' E 023°39'0 0.0
2014-Jul-25 07:25N 37°56' E 023°39'0 0.0
2014-Jul-25 06:25N 37°56' E 023°39'0 0.0
2014-Jul-24 19:31N 37°56' E 023°39'0 0.0
2014-Jul-24 18:31N 37°56' E 023°39'0 0.0
2014-Jul-24 17:31N 37°56' E 023°39'0 0.0
2014-Jul-24 16:25N 37°56' E 023°39'0 0.0
2014-Jul-24 15:22N 37°56' E 023°39'0 0.0
2014-Jul-24 13:31N 37°56' E 023°39'0 0.0
2014-Jul-24 12:31N 37°56' E 023°39'0 0.0
2014-Jul-24 10:10N 37°56' E 023°39'0 0.0
2014-Jul-24 09:28N 37°56' E 023°39'0 0.0
2014-Jul-24 08:22N 37°56' E 023°39'0 0.0
2014-Jul-24 06:22N 37°56' E 023°39'0 0.0
2014-Jul-23 23:10N 37°56' E 023°39'0 0.0
2014-Jul-23 16:17N 37°56' E 023°39'0 0.0
2014-Jul-23 15:14N 37°56' E 023°39'0 0.0
2014-Jul-23 13:11N 37°56' E 023°39'0 0.0
2014-Jul-23 11:14N 37°56' E 023°39'0 0.0
2014-Jul-23 09:29N 37°56' E 023°39'0 0.3
2014-Jul-23 08:33N 37°56' E 023°39'8 7.9
2014-Jul-23 07:33N 37°48' E 023°36'60 2.2
2014-Jul-22 04:31N 36°58' E 024°16'7 7.6
2014-Jul-22 03:33N 36°53' E 024°23'36 0.9
2014-Jul-20 09:24N 36°37' E 025°04'10 8.7
2014-Jul-20 08:16N 36°43' E 025°14'3 0.9
2014-Jul-20 05:31N 36°43' E 025°17'0 0.0
2014-Jul-20 04:25N 36°43' E 025°17'0 0.0
2014-Jul-20 03:31N 36°43' E 025°17'0 0.0
2014-Jul-20 00:07N 36°43' E 025°17'0 0.0
2014-Jul-19 23:25N 36°43' E 025°17'0 0.0
2014-Jul-19 22:25N 36°43' E 025°17'0 0.0
2014-Jul-19 21:19N 36°43' E 025°17'0 0.0
2014-Jul-19 20:19N 36°43' E 025°17'0 0.0
2014-Jul-19 19:25N 36°43' E 025°17'0 0.0
2014-Jul-19 18:31N 36°43' E 025°17'0 0.0
2014-Jul-19 17:19N 36°43' E 025°17'0 0.0
2014-Jul-19 16:25N 36°43' E 025°17'0 0.0
2014-Jul-19 14:31N 36°43' E 025°17'0 0.0
2014-Jul-19 13:31N 36°43' E 025°17'0 0.0
2014-Jul-19 12:13N 36°43' E 025°17'0 0.0
2014-Jul-19 11:07N 36°43' E 025°17'1 0.7
2014-Jul-19 10:08N 36°43' E 025°17'4 5.3
2014-Jul-19 09:24N 36°46' E 025°15'18 8.6
2014-Jul-19 07:16N 36°48' E 025°38'810.4
2014-Jul-19 06:31N 36°51' E 025°47'7 0.4
2014-Jul-18 11:21N 36°53' E 025°55'7 7.9
2014-Jul-18 10:31N 36°51' E 025°47'9 8.7
2014-Jul-18 09:31N 36°45' E 025°39'5 5.1
2014-Jul-18 08:33N 36°47' E 025°33'4 0.6
2014-Jul-18 01:21N 36°51' E 025°32'0 0.0
2014-Jul-17 23:03N 36°51' E 025°32'0 0.0
2014-Jul-17 17:21N 36°51' E 025°32'0 0.0
2014-Jul-17 16:21N 36°51' E 025°32'0 0.0
2014-Jul-17 15:27N 36°51' E 025°32'14 0.7
2014-Jul-16 20:19N 36°39' E 025°22'0 0.0
2014-Jul-16 19:31N 36°39' E 025°22'0 0.0
2014-Jul-16 18:31N 36°39' E 025°22'0 0.0
2014-Jul-16 14:30N 36°39' E 025°22'0 0.0
2014-Jul-16 13:12N 36°39' E 025°22'0 0.0
2014-Jul-16 11:21N 36°39' E 025°22'9 5.1
2014-Jul-16 09:32N 36°47' E 025°28'  
Track history (hours):
 
Tides and Currents Weather Stations Pressure Air Temp Water Temp Dewpoint Dewpoint Depression Visibility Wind Speed Wind Dir Waves Ship Positions

Sy Liara

Last reported at 2014-Jul-26 09:25 UTC. Time now 2014-Jul-26 17:14 UTC.
Position N 37°41' E 023°32'.

Length 30 m.

Type: Sailing vessel. MMSI: 235068934.

Date/timePositionNaut miles runAvg speedWind from/ knotsBaromVisibWave heightAir tempDewpointWater temp
2014-Jul-26 09:25N 37°41' E 023°32'6 7.5
2014-Jul-26 08:33N 37°47' E 023°35'7 6.7
2014-Jul-26 07:33N 37°53' E 023°38'3 2.5
2014-Jul-26 06:31N 37°56' E 023°39'0 0.0
2014-Jul-26 05:22N 37°56' E 023°39'0 0.0
2014-Jul-26 04:22N 37°56' E 023°39'0 0.0
2014-Jul-26 03:31N 37°56' E 023°39'0 0.0
2014-Jul-26 02:31N 37°56' E 023°39'0 0.0
2014-Jul-26 01:22N 37°56' E 023°39'0 0.0
2014-Jul-26 00:22N 37°56' E 023°39'0 0.0
2014-Jul-25 23:31N 37°56' E 023°39'0 0.0
2014-Jul-25 22:19N 37°56' E 023°39'0 0.0
2014-Jul-25 21:28N 37°56' E 023°39'0 0.0
2014-Jul-25 20:25N 37°56' E 023°39'0 0.0
2014-Jul-25 19:22N 37°56' E 023°39'0 0.0
2014-Jul-25 18:31N 37°56' E 023°39'0 0.0
2014-Jul-25 17:28N 37°56' E 023°39'0 0.0
2014-Jul-25 16:31N 37°56' E 023°39'0 0.0
2014-Jul-25 15:31N 37°56' E 023°39'0 0.0
2014-Jul-25 13:22N 37°56' E 023°39'0 0.0
2014-Jul-25 12:25N 37°56' E 023°39'0 0.0
2014-Jul-25 11:28N 37°56' E 023°39'0 0.0
2014-Jul-25 10:28N 37°56' E 023°39'0 0.0
2014-Jul-25 09:10N 37°56' E 023°39'0 0.0
2014-Jul-25 08:28N 37°56' E 023°39'0 0.0
2014-Jul-25 07:25N 37°56' E 023°39'0 0.0
2014-Jul-25 06:25N 37°56' E 023°39'0 0.0
2014-Jul-24 19:31N 37°56' E 023°39'0 0.0
2014-Jul-24 18:31N 37°56' E 023°39'0 0.0
2014-Jul-24 17:31N 37°56' E 023°39'0 0.0
2014-Jul-24 16:25N 37°56' E 023°39'0 0.0
2014-Jul-24 15:22N 37°56' E 023°39'0 0.0
2014-Jul-24 13:31N 37°56' E 023°39'0 0.0
2014-Jul-24 12:31N 37°56' E 023°39'0 0.0
2014-Jul-24 10:10N 37°56' E 023°39'0 0.0
2014-Jul-24 09:28N 37°56' E 023°39'0 0.0
2014-Jul-24 08:22N 37°56' E 023°39'0 0.0
2014-Jul-24 06:22N 37°56' E 023°39'0 0.0
2014-Jul-23 23:10N 37°56' E 023°39'0 0.0
2014-Jul-23 16:17N 37°56' E 023°39'0 0.0
2014-Jul-23 15:14N 37°56' E 023°39'0 0.0
2014-Jul-23 13:11N 37°56' E 023°39'0 0.0
2014-Jul-23 11:14N 37°56' E 023°39'0 0.0
2014-Jul-23 09:29N 37°56' E 023°39'0 0.3
2014-Jul-23 08:33N 37°56' E 023°39'8 7.9
2014-Jul-23 07:33N 37°48' E 023°36'60 2.2
2014-Jul-22 04:31N 36°58' E 024°16'7 7.6
2014-Jul-22 03:33N 36°53' E 024°23'36 0.9
2014-Jul-20 09:24N 36°37' E 025°04'10 8.7
2014-Jul-20 08:16N 36°43' E 025°14'3 0.9
2014-Jul-20 05:31N 36°43' E 025°17'0 0.0
2014-Jul-20 04:25N 36°43' E 025°17'0 0.0
2014-Jul-20 03:31N 36°43' E 025°17'0 0.0
2014-Jul-20 00:07N 36°43' E 025°17'0 0.0
2014-Jul-19 23:25N 36°43' E 025°17'0 0.0
2014-Jul-19 22:25N 36°43' E 025°17'0 0.0
2014-Jul-19 21:19N 36°43' E 025°17'0 0.0
2014-Jul-19 20:19N 36°43' E 025°17'0 0.0
2014-Jul-19 19:25N 36°43' E 025°17'0 0.0
2014-Jul-19 18:31N 36°43' E 025°17'0 0.0
2014-Jul-19 17:19N 36°43' E 025°17'0 0.0
2014-Jul-19 16:25N 36°43' E 025°17'0 0.0
2014-Jul-19 14:31N 36°43' E 025°17'0 0.0
2014-Jul-19 13:31N 36°43' E 025°17'0 0.0
2014-Jul-19 12:13N 36°43' E 025°17'0 0.0
2014-Jul-19 11:07N 36°43' E 025°17'1 0.7
2014-Jul-19 10:08N 36°43' E 025°17'4 5.3
2014-Jul-19 09:24N 36°46' E 025°15'18 8.6
2014-Jul-19 07:16N 36°48' E 025°38'810.4
2014-Jul-19 06:31N 36°51' E 025°47'7 0.4
2014-Jul-18 11:21N 36°53' E 025°55'7 7.9
2014-Jul-18 10:31N 36°51' E 025°47'9 8.7
2014-Jul-18 09:31N 36°45' E 025°39'5 5.1
2014-Jul-18 08:33N 36°47' E 025°33'4 0.6
2014-Jul-18 01:21N 36°51' E 025°32'0 0.0
2014-Jul-17 23:03N 36°51' E 025°32'0 0.0
2014-Jul-17 17:21N 36°51' E 025°32'0 0.0
2014-Jul-17 16:21N 36°51' E 025°32'0 0.0
2014-Jul-17 15:27N 36°51' E 025°32'14 0.7
2014-Jul-16 20:19N 36°39' E 025°22'0 0.0
2014-Jul-16 19:31N 36°39' E 025°22'0 0.0
2014-Jul-16 18:31N 36°39' E 025°22'0 0.0
2014-Jul-16 14:30N 36°39' E 025°22'0 0.0
2014-Jul-16 13:12N 36°39' E 025°22'0 0.0
2014-Jul-16 11:21N 36°39' E 025°22'9 5.1
2014-Jul-16 09:32N 36°47' E 025°28'  

Dump ship's entire track history